Other Public Products
Issued by NWS Grand Forks, ND

Home | Current Version | Previous Version | Text Only | Print | Product List | Glossary Off
Versions: 1 2 3 4 5 6 7 8 9 10 11 12 13 14 15 16 17 18 19 20 21 22 23 24 25 26 27 28 29 30 31 32 33 34 35 36 37 38 39 40 41 42 43 44 45 46 47 48 49 50

000
FPUS83 KFGF 230631
OPUFGF
PRAIRIE TO PINES WEATHER ROUNDUP
NATIONAL WEATHER SERVICE EASTERN NORTH DAKOTA/GRAND FORKS ND
100 AM CDT WED JUL 23 2014

 **SATELLITE DATA USED TO AUGMENT SKY COVER AT AUTOMATED STATIONS**
 *****  WEATHER ACROSS EASTERN NORTH DAKOTA  *****

CITY           SKY/WX    TMP DP  RH WIND       PRES   REMARKS
GRAND FORKS    PTCLDY    61  59  93 CALM      30.25R
6HR MIN TEMP:  61; 6HR MAX TEMP:  75;

GRAND FORKS AF CLEAR     61  61  99 NW5       30.27R
GRAND CITY NWS   N/A     61 N/A N/A NW2         N/A
BUXTON           N/A     63  62  97 CALM        N/A
DEVILS LAKE    MOCLDY    64  57  77 E6        30.27R
6HR MIN TEMP:  66; 6HR MAX TEMP:  75;

FARGO          CLEAR     62  57  83 W3        30.25S
6HR MIN TEMP:  61; 6HR MAX TEMP:  77;

WAHPETON ARPT  CLEAR     61  54  77 N5        30.25S
$$

 *****  WEATHER ACROSS CENTRAL AND WESTERN NORTH DAKOTA  *****

CITY           SKY/WX    TMP DP  RH WIND       PRES   REMARKS
JAMESTOWN      PTCLDY    63  60  90 CALM      30.28R
6HR MIN TEMP:  62; 6HR MAX TEMP:  79;

BISMARCK       PTCLDY    67  61  81 E7        30.26R
6HR MIN TEMP:  67; 6HR MAX TEMP:  80;

MINOT          MOCLDY    67  59  75 CALM      30.25S
6HR MIN TEMP:  65; 6HR MAX TEMP:  77;

MINOT AFB      MOCLDY    68  61  77 E6        30.25S
6HR MIN TEMP:  66; 6HR MAX TEMP:  77;

GARRISON         N/A     68  65  90 CALM      30.26R
6HR MIN TEMP:  68; 6HR MAX TEMP:  78;

WILLISTON      CLOUDY    72  63  73 E9        30.24R
6HR MIN TEMP:  72; 6HR MAX TEMP:  84;

DICKINSON      PTCLDY    63  60  90 E3        30.26R
6HR MIN TEMP:  62; 6HR MAX TEMP:  74; 6HR PCP:  0.04;

HETTINGER      PTCLDY    61  58  90 CALM      30.28R
6HR MIN TEMP:  60; 6HR MAX TEMP:  76; 6HR PCP:  0.01;

$$

 *****  OTHER OBSERVATIONS NORTHEAST NORTH DAKOTA  *****

CITY           SKY/WX    TMP DP  RH WIND       PRES   REMARKS
WALHALLA       CLOUDY    59  59 100 NW5         N/A
LANGDON        FAIR      55  52  88 NE3       30.30R
CAVALIER       FAIR      59  55  88 NW5       30.28R
GRAFTON        FAIR      59  57  94 N7        30.26R
CANDO          CLOUDY    64  59  82 E9        30.30R
FORT TOTTEN      N/A     67  60  77 SE3       29.95S
ROLLA          CLOUDY    57  57 100 CALM      30.32S
RUGBY          FAIR      63  63 100 E8        30.27S
 ***** THE ABOVE OBSERVATIONS ARE NON NWS ARE NOT QUALITY
        CONTROLLED AND MAY MIS-REPORT RAIN FOR SNOW...
$$

 *****  OTHER OBSERVATIONS SOUTHEAST NORTH DAKOTA *****

CITY           SKY/WX    TMP DP  RH WIND       PRES   REMARKS
COOPERSTOWN    NOT AVBL
VALLEY CITY    CLOUDY    64  64 100 CALM      30.28R
OAKES          NOT AVBL
GWINNER        CLEAR     63  63 100 NE3       30.28R
BUFFALO        NOT AVBL
WYNDMERE       NOT AVBL
 ***** THE ABOVE OBSERVATIONS ARE NON NWS ARE NOT QUALITY
       CONTROLLED AND MAY MIS-REPORT RAIN FOR SNOW...
$$

  *****  WEATHER ACROSS NORTHERN MINNESOTA  *****

CITY           SKY/WX    TMP DP  RH WIND       PRES   REMARKS
FLAG ISLAND    CLEAR     64  57  77 N9        30.22S
WARROAD        CLEAR     57  54  88 W7        30.25R
ROSEAU         CLEAR     57  54  88 NW5       30.25R
HALLOCK        CLEAR     61  57  88 N3        30.26R
THF RVR FALLS  CLEAR     61  55  82 CALM      30.26R
6HR MIN TEMP:  63; 6HR MAX TEMP:  73;

HALSTAD          N/A     59  57  92 NW5         N/A
FOSSTON        CLEAR     55  54  94 CALM      30.26S
BAUDETTE       CLEAR     61  55  81 VRB3      30.23S
6HR MIN TEMP:  61; 6HR MAX TEMP:  74;

WASKISH        CLEAR     63  55  77 N7        30.23R
CROOKSTON      CLEAR     59  57  94 CALM      30.27R
$$
  *****  WEATHER ACROSS CENTRAL AND WEST MINNESOTA  *****

CITY           SKY/WX    TMP DP  RH WIND       PRES   REMARKS
BEMIDJI        CLEAR     55  51  88 NW5       30.24S
PARK RAPIDS    CLEAR     56  53  90 NW3       30.25R
6HR MIN TEMP:  56; 6HR MAX TEMP:  74;

WADENA         CLEAR     57  54  88 NW5       30.25R
DETROIT LAKES  CLEAR     61  55  82 CALM      30.27S
MOORHEAD       CLEAR     61  61 100 CALM      30.26R
FERGUS FALLS   CLEAR     61  54  77 CALM      30.26S
ELBOW LAKE     FAIR      60  57  90 N5        30.25S
MORRIS MN      CLEAR     59  55  88 CALM      30.24S
STAPLES        CLEAR     57  54  88 NW5       30.24R
WHEATON        CLEAR     59  55  88 CALM      30.27S
$$
  *****  WEATHER ELSEWHERE ACROSS MINNESOTA  *****

CITY           SKY/WX    TMP DP  RH WIND       PRES   REMARKS
DULUTH         CLEAR     60  52  74 NW5       30.18S
6HR MIN TEMP:  60; 6HR MAX TEMP:  75;

INTRNTL FALLS  CLEAR     62  55  77 NE3       30.21R
6HR MIN TEMP:  57; 6HR MAX TEMP:  73;

ELY            PTCLDY    54  52  94 CALM      30.20R
CLOQUET        CLEAR     57  52  82 NW5       30.19S
BRAINERD       CLEAR     56  54  93 CALM      30.22R
6HR MIN TEMP:  54; 6HR MAX TEMP:  74;

HIBBING        CLEAR     53  50  89 W3        30.19S
6HR MIN TEMP:  53; 6HR MAX TEMP:  75;

ALEXANDRIA     CLEAR     63  57  81 N5        30.26R
6HR MIN TEMP:  63; 6HR MAX TEMP:  76;

SAINT CLOUD    CLEAR     62  55  77 N5        30.20R
6HR MIN TEMP:  62; 6HR MAX TEMP:  81;

MINNEAPOLIS    CLEAR     70  56  61 N10       30.17R
6HR MIN TEMP:  70; 6HR MAX TEMP:  82;

$$

  *****  WEATHER ACROSS SOUTH DAKOTA  *****

CITY           SKY/WX    TMP DP  RH WIND       PRES   REMARKS
SIOUX FALLS    PTCLDY    63  57  81 N6        30.26R
6HR MIN TEMP:  63; 6HR MAX TEMP:  81; 6HR PCP: TRACE;

BROOKINGS      NOT AVBL
WATERTOWN      PTCLDY    61  57  87 CALM      30.26F
6HR MIN TEMP:  60; 6HR MAX TEMP:  76;

HURON          MOCLDY    66  59  78 SE6       30.23F
6HR MIN TEMP:  63; 6HR MAX TEMP:  81;

SISSETON         N/A     60  58  92 N3        30.24F
ABERDEEN       MOCLDY    63  60  90 SE3       30.26R
6HR MIN TEMP:  61; 6HR MAX TEMP:  79;

MITCHELL       MOCLDY    66  62  87 E9        30.22F
PIERRE         CLOUDY    69  59  70 E7        30.21R
6HR MIN TEMP:  69; 6HR MAX TEMP:  84;

MOBRIDGE       PTCLDY    66  61  84 E7        30.21R
RAPID CITY     MOCLDY    67  63  87 SW7       30.27F
6HR MIN TEMP:  66; 6HR MAX TEMP:  78; 6HR PCP:  0.25;

$$

  *****  SOME WEATHER IN NEARBY STATES *****

CITY           SKY/WX    TMP DP  RH WIND       PRES   REMARKS
GLASGOW MT     PTCLDY    67  55  65 E10       30.22S
6HR MIN TEMP:  67; 6HR MAX TEMP:  84;

GREAT FALLS MT MOCLDY    67  57  70 SE6       30.16R
6HR MIN TEMP:  67; 6HR MAX TEMP:  84; 6HR PCP:  0.04;

CHEYENNE WY    CLEAR     71  58  63 S13       30.40R
6HR MIN TEMP:  71; 6HR MAX TEMP:  85;

SCOTTSBLUFF NE CLEAR     75  61  61 E15G23    30.30R
6HR MIN TEMP:  73; 6HR MAX TEMP:  91;

OMAHA NE       PTCLDY    71  64  78 N8        30.18R
6HR MIN TEMP:  71; 6HR MAX TEMP:  85;

DES MOINES IA  CLEAR     75  62  64 N10       30.13R
6HR MIN TEMP:  75; 6HR MAX TEMP:  86; 6HR PCP: TRACE;

DAVENPORT IA   CLEAR     71  68  90 N7        30.06R
6HR MIN TEMP:  71; 6HR MAX TEMP:  86;

CHICAGO IL     CLOUDY    74  63  68 NE18G24   30.02R
6HR MIN TEMP:  74; 6HR MAX TEMP:  87; 6HR PCP:  0.01;

EAU CLAIRE WI  CLEAR     64  61  90 N5        30.15R
6HR MIN TEMP:  64; 6HR MAX TEMP:  80;

LA CROSSE WI   CLEAR     72  61  68 NE7       30.12R
6HR MIN TEMP:  70; 6HR MAX TEMP:  84;

$$

  *****  SOME NATIONAL WEATHER *****

CITY           SKY/WX    TMP DP  RH WIND       PRES   REMARKS
LA GUARDIA NY  PTCLDY    76  62  62 SW8       30.02F
6HR MIN TEMP:  76; 6HR MAX TEMP:  80;



USA.gov is the U.S. government's official web portal to all federal, state and local government web resources and services.